VTK519 UWGG-UNOO

Flight info

Callsign VTK519
Flight time 2h 18m
Altitude 37000
Route K0839F370 PESAB T765 GEMKI L94 OKETI B236 BUNET DCT ALODA
Aircraft B737/M-SDE2E3FGHIRWXY/LB1

Departure

Time 2026-04-27 07:22
Airport Nizhny Novgorod / Strigino International Airport (UWGG)

Arrival

Time 2026-04-27 09:41
Airport Omsk Central Airport (UNOO)
Time Latitude Longitude Altitude Speed Heading
2026-04-27 07:02 56.21947 43.78818 265 ft 0 kts 101°
2026-04-27 07:11 56.21951 43.78785 265 ft 3 kts 108°
2026-04-27 07:11 56.21957 43.78752 252 ft 3 kts 116°
2026-04-27 07:11 56.21967 43.78720 265 ft 2 kts 121°
2026-04-27 07:11 56.21970 43.78710 265 ft 0 kts 121°
2026-04-27 07:15 56.21968 43.78715 265 ft 1 kts 126°
2026-04-27 07:15 56.21955 43.78719 249 ft 3 kts 179°
2026-04-27 07:15 56.21939 43.78709 265 ft 4 kts 208°
2026-04-27 07:15 56.21923 43.78671 265 ft 4 kts 245°
2026-04-27 07:16 56.21913 43.78626 265 ft 4 kts 256°
2026-04-27 07:16 56.21915 43.78565 265 ft 6 kts 279°
2026-04-27 07:16 56.21924 43.78485 265 ft 7 kts 281°
2026-04-27 07:16 56.21936 43.78388 266 ft 9 kts 281°
2026-04-27 07:17 56.21948 43.78276 265 ft 9 kts 283°
2026-04-27 07:17 56.21997 43.78221 266 ft 9 kts
2026-04-27 07:17 56.22060 43.78242 266 ft 9 kts 11°
2026-04-27 07:17 56.22145 43.78273 266 ft 17 kts 11°
2026-04-27 07:18 56.22288 43.78325 266 ft 24 kts 12°
2026-04-27 07:18 56.22478 43.78395 264 ft 30 kts 12°
2026-04-27 07:18 56.22685 43.78470 264 ft 30 kts 11°
2026-04-27 07:18 56.22881 43.78541 266 ft 28 kts 12°
2026-04-27 07:19 56.23065 43.78609 268 ft 26 kts 11°
2026-04-27 07:19 56.23237 43.78672 267 ft 24 kts 11°
2026-04-27 07:19 56.23398 43.78729 265 ft 23 kts 11°
2026-04-27 07:19 56.23551 43.78787 262 ft 22 kts 12°
2026-04-27 07:20 56.23701 43.78841 264 ft 22 kts 12°
2026-04-27 07:20 56.23847 43.78894 265 ft 21 kts 11°
2026-04-27 07:20 56.23971 43.78939 266 ft 16 kts 11°
2026-04-27 07:20 56.24061 43.78977 267 ft 8 kts 22°
2026-04-27 07:21 56.24097 43.79047 267 ft 8 kts 49°
2026-04-27 07:21 56.24128 43.79015 267 ft 7 kts 250°
2026-04-27 07:21 56.24083 43.78980 267 ft 7 kts 191°
2026-04-27 07:21 56.24027 43.78960 266 ft 13 kts 191°
2026-04-27 07:22 56.23708 43.78843 264 ft 82 kts 191°
2026-04-27 07:22 56.22939 43.78565 270 ft 141 kts 191°
2026-04-27 07:22 56.21956 43.78189 843 ft 141 kts 191°
2026-04-27 07:22 56.21016 43.77786 1689 ft 136 kts 194°
2026-04-27 07:23 56.20083 43.77933 2363 ft 147 kts 149°
2026-04-27 07:23 56.19518 43.79552 3044 ft 165 kts 116°
2026-04-27 07:23 56.19218 43.81591 3647 ft 179 kts 115°
2026-04-27 07:23 56.18848 43.83963 3800 ft 213 kts 115°
2026-04-27 07:24 56.18421 43.86711 4046 ft 245 kts 113°
2026-04-27 07:24 56.17962 43.89761 4698 ft 257 kts 112°
2026-04-27 07:24 56.17505 43.92884 5514 ft 261 kts 112°
2026-04-27 07:24 56.17043 43.96060 6316 ft 263 kts 112°
2026-04-27 07:25 56.16583 43.99241 7177 ft 264 kts 112°
2026-04-27 07:25 56.16119 44.02436 8041 ft 265 kts 113°
2026-04-27 07:25 56.15648 44.05636 8918 ft 267 kts 113°
2026-04-27 07:25 56.15170 44.08882 9671 ft 272 kts 114°
2026-04-27 07:26 56.14649 44.12283 9926 ft 295 kts 114°
2026-04-27 07:26 56.14073 44.15961 10203 ft 316 kts 114°
2026-04-27 07:26 56.13480 44.19810 10881 ft 323 kts 114°
2026-04-27 07:26 56.12892 44.23691 11800 ft 322 kts 115°
2026-04-27 07:27 56.12308 44.27566 12749 ft 322 kts 115°
2026-04-27 07:27 56.11721 44.31447 13614 ft 323 kts 116°
2026-04-27 07:27 56.11129 44.35343 14451 ft 325 kts 116°
2026-04-27 07:27 56.10531 44.39266 15274 ft 328 kts 116°
2026-04-27 07:28 56.09927 44.43212 16032 ft 330 kts 115°
2026-04-27 07:28 56.09315 44.47201 16822 ft 333 kts 115°
2026-04-27 07:28 56.08696 44.51226 17562 ft 337 kts 116°
2026-04-27 07:28 56.08068 44.55303 18207 ft 341 kts 116°
2026-04-27 07:29 56.07434 44.59409 18866 ft 345 kts 116°
2026-04-27 07:29 56.06799 44.63515 19506 ft 348 kts 116°
2026-04-27 07:29 56.06148 44.67715 20156 ft 352 kts 116°
2026-04-27 07:29 56.05489 44.71951 20690 ft 357 kts 116°
2026-04-27 07:30 56.04803 44.76339 21214 ft 364 kts 116°
2026-04-27 07:30 56.04120 44.80721 21821 ft 367 kts 116°
2026-04-27 07:30 56.03441 44.85075 22464 ft 370 kts 116°
2026-04-27 07:30 56.02745 44.89520 23011 ft 373 kts 116°
2026-04-27 07:31 56.02040 44.94005 23496 ft 377 kts 116°
2026-04-27 07:31 56.01324 44.98531 23985 ft 380 kts 116°
2026-04-27 07:31 56.00748 45.03209 24437 ft 397 kts 105°
2026-04-27 07:31 56.00810 45.08252 24923 ft 412 kts 97°
2026-04-27 07:32 56.01041 45.13372 25386 ft 416 kts 96°
2026-04-27 07:32 56.01295 45.18546 25824 ft 419 kts 96°
2026-04-27 07:32 56.01548 45.23752 26243 ft 422 kts 96°
2026-04-27 07:32 56.01792 45.28997 26677 ft 424 kts 96°
2026-04-27 07:33 56.02025 45.34269 27111 ft 427 kts 96°
2026-04-27 07:33 56.02249 45.39581 27513 ft 429 kts 96°
2026-04-27 07:33 56.02468 45.44925 27827 ft 433 kts 96°
2026-04-27 07:33 56.02682 45.50340 28065 ft 440 kts 96°
2026-04-27 07:34 56.02896 45.55808 28460 ft 442 kts 96°
2026-04-27 07:34 56.03112 45.61297 28907 ft 443 kts 96°
2026-04-27 07:34 56.03326 45.66804 29295 ft 445 kts 96°
2026-04-27 07:34 56.03538 45.72345 29588 ft 448 kts 96°
2026-04-27 07:35 56.03748 45.77928 29863 ft 451 kts 96°
2026-04-27 07:35 56.03958 45.83523 30200 ft 451 kts 96°
2026-04-27 07:35 56.04166 45.89116 30590 ft 451 kts 95°
2026-04-27 07:35 56.04370 45.94700 30948 ft 451 kts 95°
2026-04-27 07:36 56.04572 46.00305 31266 ft 451 kts 95°
2026-04-27 07:36 56.04770 46.05915 31578 ft 452 kts 95°
2026-04-27 07:36 56.04966 46.11531 31871 ft 452 kts 95°
2026-04-27 07:36 56.05160 46.17125 32263 ft 451 kts 95°
2026-04-27 07:37 56.05352 46.22726 32643 ft 450 kts 95°
2026-04-27 07:37 56.05539 46.28314 32907 ft 451 kts 95°
2026-04-27 07:37 56.05724 46.33924 33117 ft 453 kts 95°
2026-04-27 07:37 56.05908 46.39574 33288 ft 456 kts 95°
2026-04-27 07:38 56.06091 46.45244 33544 ft 457 kts 94°
2026-04-27 07:38 56.06273 46.50910 33839 ft 456 kts 94°
2026-04-27 07:38 56.06418 46.56560 34065 ft 455 kts 96°
2026-04-27 07:38 56.06491 46.62233 34246 ft 456 kts 96°
2026-04-27 07:39 56.06536 46.67915 34445 ft 457 kts 97°
2026-04-27 07:39 56.06570 46.73599 34681 ft 457 kts 96°
2026-04-27 07:39 56.06606 46.79277 34902 ft 458 kts 96°
2026-04-27 07:39 56.06644 46.84982 35098 ft 459 kts 96°
2026-04-27 07:40 56.06686 46.90703 35286 ft 460 kts 96°
2026-04-27 07:40 56.06729 46.96435 35495 ft 461 kts 96°
2026-04-27 07:40 56.06772 47.02171 35674 ft 462 kts 96°
2026-04-27 07:40 56.06812 47.07849 35867 ft 463 kts 96°
2026-04-27 07:41 56.06852 47.13679 36061 ft 463 kts 96°
2026-04-27 07:41 56.06887 47.19378 36203 ft 464 kts 96°
2026-04-27 07:41 56.06920 47.25164 36324 ft 466 kts 96°
2026-04-27 07:42 56.06977 47.36865 36411 ft 467 kts 96°
2026-04-27 07:42 56.07025 47.48398 36411 ft 466 kts 96°
2026-04-27 07:43 56.07062 47.59982 36418 ft 464 kts 96°
2026-04-27 07:43 56.07087 47.71497 36419 ft 462 kts 96°
2026-04-27 07:44 56.07099 47.83047 36432 ft 461 kts 96°
2026-04-27 07:44 56.07104 47.94452 36450 ft 462 kts 96°
2026-04-27 07:45 56.07099 48.05954 36437 ft 462 kts 97°
2026-04-27 07:45 56.07078 48.17494 36452 ft 464 kts 97°
2026-04-27 07:46 56.07054 48.29011 36489 ft 466 kts 97°
2026-04-27 07:46 56.07016 48.40706 36455 ft 469 kts 97°
2026-04-27 07:47 56.06967 48.52383 36489 ft 470 kts 97°
2026-04-27 07:47 56.06903 48.64098 36510 ft 471 kts 97°
2026-04-27 07:48 56.06833 48.75825 36511 ft 472 kts 97°
2026-04-27 07:48 56.06751 48.87578 36500 ft 472 kts 97°
2026-04-27 07:49 56.06661 48.99291 36528 ft 471 kts 97°
2026-04-27 07:49 56.06556 49.10999 36536 ft 470 kts 97°
2026-04-27 07:50 56.06440 49.22680 36556 ft 469 kts 97°
2026-04-27 07:50 56.06311 49.34355 36559 ft 469 kts 97°
2026-04-27 07:51 56.06172 49.46021 36572 ft 469 kts 98°
2026-04-27 07:51 56.06022 49.57683 36577 ft 469 kts 98°
2026-04-27 07:52 56.05867 49.69331 36590 ft 468 kts 98°
2026-04-27 07:52 56.05697 49.80982 36592 ft 468 kts 98°
2026-04-27 07:53 56.05521 49.92640 36584 ft 469 kts 98°
2026-04-27 07:53 56.05338 50.04285 36608 ft 469 kts 98°
2026-04-27 07:54 56.05148 50.15958 36630 ft 470 kts 98°
2026-04-27 07:54 56.04941 50.27659 36634 ft 471 kts 98°
2026-04-27 07:55 56.04725 50.39383 36652 ft 472 kts 98°
2026-04-27 07:55 56.04498 50.51131 36650 ft 473 kts 98°
2026-04-27 07:56 56.04258 50.62885 36657 ft 472 kts 98°
2026-04-27 07:56 56.04010 50.74547 36666 ft 472 kts 98°
2026-04-27 07:57 56.03754 50.86290 36668 ft 473 kts 97°
2026-04-27 07:57 56.03763 50.98102 36694 ft 476 kts 95°
2026-04-27 07:58 56.03876 51.09943 36698 ft 476 kts 95°
2026-04-27 07:58 56.03928 51.19848 36696 ft 476 kts 95°
2026-04-27 07:59 56.03954 51.31689 36713 ft 476 kts 96°
2026-04-27 07:59 56.03957 51.49411 36709 ft 475 kts 96°
2026-04-27 08:00 56.03946 51.61209 36726 ft 475 kts 96°
2026-04-27 08:00 56.03927 51.73024 36745 ft 475 kts 96°
2026-04-27 08:01 56.03936 51.84833 36736 ft 476 kts 93°
2026-04-27 08:01 56.04315 51.96682 36742 ft 478 kts 91°
2026-04-27 08:02 56.04787 52.08541 36746 ft 478 kts 91°
2026-04-27 08:02 56.05209 52.20391 36752 ft 477 kts 91°
2026-04-27 08:03 56.05595 52.32224 36763 ft 476 kts 91°
2026-04-27 08:03 56.05966 52.44050 36747 ft 476 kts 91°
2026-04-27 08:04 56.06327 52.55789 36773 ft 476 kts 91°
2026-04-27 08:04 56.06674 52.67621 36801 ft 476 kts 92°
2026-04-27 08:05 56.06989 52.79459 36800 ft 477 kts 92°
2026-04-27 08:05 56.07292 52.91327 36802 ft 477 kts 92°
2026-04-27 08:06 56.07588 53.03194 36814 ft 477 kts 92°
2026-04-27 08:06 56.07874 53.15071 36812 ft 478 kts 92°
2026-04-27 08:07 56.08141 53.26630 36826 ft 478 kts 92°
2026-04-27 08:07 56.08405 53.38518 36828 ft 478 kts 92°
2026-04-27 08:08 56.08660 53.50406 36797 ft 477 kts 92°
2026-04-27 08:08 56.08896 53.62277 36820 ft 477 kts 92°
2026-04-27 08:09 56.09103 53.74141 36848 ft 477 kts 92°
2026-04-27 08:09 56.09299 53.86023 36855 ft 477 kts 92°
2026-04-27 08:10 56.09491 53.97902 36857 ft 477 kts 92°
2026-04-27 08:10 56.09669 54.09793 36869 ft 477 kts 92°
2026-04-27 08:11 56.09831 54.21672 36864 ft 477 kts 93°
2026-04-27 08:11 56.09989 54.33567 36881 ft 478 kts 92°
2026-04-27 08:12 56.10796 54.45457 36883 ft 482 kts 84°
2026-04-27 08:12 56.11916 54.57316 36889 ft 483 kts 84°
2026-04-27 08:13 56.13001 54.69182 36898 ft 483 kts 84°
2026-04-27 08:13 56.14035 54.81103 36897 ft 484 kts 84°
2026-04-27 08:14 56.15041 54.93040 36900 ft 485 kts 84°
2026-04-27 08:14 56.16034 55.05014 36912 ft 486 kts 84°
2026-04-27 08:15 56.17026 55.17015 36913 ft 487 kts 84°
2026-04-27 08:15 56.18005 55.29043 36911 ft 488 kts 85°
2026-04-27 08:16 56.18973 55.41097 36917 ft 488 kts 85°
2026-04-27 08:16 56.19933 55.53166 36912 ft 488 kts 84°
2026-04-27 08:17 56.20880 55.65237 36929 ft 488 kts 85°
2026-04-27 08:17 56.21816 55.77234 36924 ft 488 kts 85°
2026-04-27 08:18 56.22745 55.89296 36926 ft 487 kts 85°
2026-04-27 08:18 56.23658 56.01358 36929 ft 487 kts 85°
2026-04-27 08:19 56.24566 56.13490 36939 ft 487 kts 84°
2026-04-27 08:19 56.25454 56.25477 36947 ft 486 kts 84°
2026-04-27 08:20 56.26331 56.37542 36952 ft 487 kts 85°
2026-04-27 08:20 56.27201 56.49616 36949 ft 487 kts 85°
2026-04-27 08:21 56.28058 56.61709 36959 ft 487 kts 85°
2026-04-27 08:21 56.28906 56.73798 36962 ft 487 kts 84°
2026-04-27 08:22 56.29742 56.85908 36976 ft 487 kts 84°
2026-04-27 08:22 56.30568 56.98011 36967 ft 487 kts 84°
2026-04-27 08:23 56.31377 57.10139 36974 ft 488 kts 85°
2026-04-27 08:23 56.32175 57.22269 36973 ft 488 kts 85°
2026-04-27 08:24 56.32968 57.34409 36986 ft 488 kts 84°
2026-04-27 08:24 56.33743 57.46541 36986 ft 488 kts 84°
2026-04-27 08:25 56.34503 57.58705 36994 ft 488 kts 85°
2026-04-27 08:25 56.35252 57.70869 36988 ft 488 kts 85°
2026-04-27 08:26 56.35990 57.83045 37004 ft 488 kts 85°
2026-04-27 08:26 56.36716 57.95225 37006 ft 489 kts 84°
2026-04-27 08:27 56.37432 58.07424 37012 ft 489 kts 85°
2026-04-27 08:27 56.38135 58.19621 37015 ft 489 kts 85°
2026-04-27 08:28 56.38829 58.31839 37022 ft 489 kts 85°
2026-04-27 08:28 56.39504 58.43990 37024 ft 489 kts 85°
2026-04-27 08:29 56.40166 58.56290 37015 ft 489 kts 85°
2026-04-27 08:29 56.40809 58.68445 37023 ft 489 kts 85°
2026-04-27 08:30 56.41450 58.80675 37037 ft 489 kts 84°
2026-04-27 08:30 56.42078 58.92915 37028 ft 489 kts 85°
2026-04-27 08:31 56.42683 59.05151 37035 ft 489 kts 85°
2026-04-27 08:31 56.43039 59.17408 37038 ft 488 kts 92°
2026-04-27 08:32 56.42762 59.29668 37035 ft 488 kts 94°
2026-04-27 08:32 56.42414 59.41922 37044 ft 488 kts 94°
2026-04-27 08:33 56.42116 59.54185 37041 ft 488 kts 93°
2026-04-27 08:33 56.41840 59.66431 37048 ft 488 kts 93°
2026-04-27 08:34 56.41555 59.78677 37041 ft 488 kts 93°
2026-04-27 08:34 56.41254 59.90914 37039 ft 488 kts 93°
2026-04-27 08:35 56.40940 60.03152 37057 ft 488 kts 94°
2026-04-27 08:35 56.40616 60.15387 37051 ft 488 kts 94°
2026-04-27 08:36 56.40287 60.27614 37053 ft 488 kts 94°
2026-04-27 08:36 56.39964 60.39861 37052 ft 488 kts 94°
2026-04-27 08:37 56.39613 60.52116 37059 ft 489 kts 94°
2026-04-27 08:37 56.39207 60.64375 37061 ft 490 kts 94°
2026-04-27 08:38 56.38789 60.76641 37047 ft 490 kts 94°
2026-04-27 08:38 56.38366 60.88912 37073 ft 490 kts 94°
2026-04-27 08:39 56.37934 61.01180 37088 ft 490 kts 94°
2026-04-27 08:39 56.37516 61.13459 37078 ft 490 kts 94°
2026-04-27 08:40 56.37113 61.25744 37093 ft 490 kts 94°
2026-04-27 08:40 56.36699 61.38035 37083 ft 491 kts 94°
2026-04-27 08:41 56.36268 61.50327 37087 ft 491 kts 94°
2026-04-27 08:41 56.35823 61.62602 37085 ft 491 kts 94°
2026-04-27 08:42 56.35443 61.72802 37088 ft 490 kts 94°
2026-04-27 08:42 56.34976 61.85065 37086 ft 490 kts 94°
2026-04-27 08:43 56.34498 61.97314 37102 ft 489 kts 94°
2026-04-27 08:43 56.34008 62.09548 37101 ft 489 kts 95°
2026-04-27 08:44 56.33505 62.21778 37105 ft 489 kts 95°
2026-04-27 08:44 56.32992 62.33994 37117 ft 489 kts 95°
2026-04-27 08:45 56.32466 62.46213 37110 ft 489 kts 95°
2026-04-27 08:45 56.31928 62.58434 37113 ft 489 kts 95°
2026-04-27 08:46 56.31377 62.70654 37127 ft 490 kts 95°
2026-04-27 08:46 56.30814 62.82885 37114 ft 490 kts 95°
2026-04-27 08:47 56.30239 62.95113 37116 ft 490 kts 95°
2026-04-27 08:47 56.29651 63.07356 37121 ft 491 kts 95°
2026-04-27 08:48 56.29051 63.19593 37117 ft 491 kts 95°
2026-04-27 08:48 56.28440 63.31826 37138 ft 491 kts 95°
2026-04-27 08:49 56.27816 63.44083 37128 ft 492 kts 95°
2026-04-27 08:49 56.27176 63.56345 37126 ft 492 kts 96°
2026-04-27 08:50 56.26504 63.68596 37124 ft 493 kts 96°
2026-04-27 08:50 56.25816 63.80866 37126 ft 493 kts 96°
2026-04-27 08:51 56.25119 63.93136 37119 ft 493 kts 96°
2026-04-27 08:51 56.24416 64.05319 37121 ft 493 kts 96°
2026-04-27 08:52 56.23697 64.17580 37128 ft 493 kts 96°
2026-04-27 08:52 56.22964 64.29853 37127 ft 494 kts 96°
2026-04-27 08:53 56.22220 64.42110 37139 ft 494 kts 96°
2026-04-27 08:53 56.21463 64.54377 37134 ft 494 kts 97°
2026-04-27 08:54 56.20696 64.66632 37149 ft 494 kts 96°
2026-04-27 08:54 56.19923 64.78902 37151 ft 495 kts 96°
2026-04-27 08:55 56.19123 64.91183 37143 ft 495 kts 97°
2026-04-27 08:55 56.18308 65.03466 37135 ft 496 kts 97°
2026-04-27 08:56 56.17488 65.15745 37147 ft 496 kts 97°
2026-04-27 08:56 56.16657 65.28038 37142 ft 496 kts 97°
2026-04-27 08:57 56.15387 65.46491 37149 ft 497 kts 97°
2026-04-27 08:58 56.14532 65.58811 37149 ft 498 kts 97°
2026-04-27 08:58 56.13666 65.71140 37157 ft 498 kts 97°
2026-04-27 08:59 56.12786 65.83472 37151 ft 499 kts 97°
2026-04-27 08:59 56.11888 65.95885 37158 ft 499 kts 97°
2026-04-27 09:00 56.10989 66.08122 37155 ft 498 kts 97°
2026-04-27 09:00 56.10068 66.20498 37163 ft 498 kts 98°
2026-04-27 09:01 56.09141 66.32779 37163 ft 498 kts 98°
2026-04-27 09:01 56.08207 66.44978 37157 ft 497 kts 98°
2026-04-27 09:02 56.07251 66.57307 37160 ft 497 kts 98°
2026-04-27 09:02 56.06295 66.69477 37164 ft 497 kts 98°
2026-04-27 09:03 56.05320 66.81732 37182 ft 498 kts 98°
2026-04-27 09:03 56.04332 66.93992 37171 ft 498 kts 98°
2026-04-27 09:04 56.03330 67.06263 37171 ft 498 kts 98°
2026-04-27 09:04 56.02318 67.18521 37168 ft 499 kts 98°
2026-04-27 09:05 56.01292 67.30786 37182 ft 499 kts 98°
2026-04-27 09:05 56.00236 67.43050 37185 ft 500 kts 99°
2026-04-27 09:06 55.99162 67.55326 37177 ft 500 kts 99°
2026-04-27 09:06 55.98077 67.67611 37193 ft 501 kts 99°
2026-04-27 09:07 55.96984 67.79887 37191 ft 501 kts 99°
2026-04-27 09:07 55.95877 67.92165 37189 ft 501 kts 99°
2026-04-27 09:08 55.94762 68.04450 37168 ft 502 kts 99°
2026-04-27 09:08 55.93639 68.16734 37187 ft 501 kts 99°
2026-04-27 09:09 55.92507 68.28988 37194 ft 501 kts 99°
2026-04-27 09:09 55.91361 68.41248 37189 ft 501 kts 99°
2026-04-27 09:10 55.90203 68.53486 37189 ft 501 kts 99°
2026-04-27 09:10 55.89035 68.65711 37202 ft 500 kts 99°
2026-04-27 09:11 55.87855 68.77919 37183 ft 500 kts 99°
2026-04-27 09:11 55.86664 68.90113 37190 ft 500 kts 99°
2026-04-27 09:12 55.85460 69.02312 37189 ft 500 kts 99°
2026-04-27 09:12 55.84246 69.14478 37187 ft 499 kts 100°
2026-04-27 09:13 55.83029 69.26562 37187 ft 499 kts 100°
2026-04-27 09:13 55.81794 69.38701 37203 ft 499 kts 100°
2026-04-27 09:14 55.80533 69.50916 37186 ft 499 kts 100°
2026-04-27 09:14 55.79275 69.62978 37182 ft 499 kts 100°
2026-04-27 09:15 55.78000 69.75106 37189 ft 499 kts 101°
2026-04-27 09:15 55.76714 69.87223 37184 ft 499 kts 101°
2026-04-27 09:16 55.75416 69.99333 37197 ft 499 kts 101°
2026-04-27 09:16 55.74106 70.11440 37177 ft 499 kts 101°
2026-04-27 09:17 55.72784 70.23535 37194 ft 499 kts 101°
2026-04-27 09:17 55.71450 70.35623 37184 ft 499 kts 101°
2026-04-27 09:18 55.70104 70.47706 37162 ft 500 kts 101°
2026-04-27 09:18 55.69419 70.53804 36594 ft 507 kts 101°
2026-04-27 09:18 55.68729 70.59925 36012 ft 505 kts 101°
2026-04-27 09:18 55.68038 70.66032 35329 ft 506 kts 101°
2026-04-27 09:19 55.67342 70.72145 34612 ft 508 kts 101°
2026-04-27 09:19 55.66637 70.78307 33787 ft 511 kts 101°
2026-04-27 09:19 55.65928 70.84478 32950 ft 512 kts 100°
2026-04-27 09:19 55.65214 70.90667 32152 ft 513 kts 100°
2026-04-27 09:20 55.64505 70.96778 31600 ft 508 kts 99°
2026-04-27 09:20 55.63789 71.02921 31045 ft 504 kts 99°
2026-04-27 09:20 55.63082 71.08978 30482 ft 500 kts 99°
2026-04-27 09:20 55.62377 71.14977 29900 ft 497 kts 99°
2026-04-27 09:21 55.61591 71.20903 29288 ft 494 kts 105°
2026-04-27 09:21 55.60390 71.26552 28776 ft 490 kts 115°
2026-04-27 09:21 55.58819 71.31876 28196 ft 485 kts 118°
2026-04-27 09:21 55.57204 71.37090 27636 ft 481 kts 118°
2026-04-27 09:22 55.55597 71.42228 27105 ft 476 kts 118°
2026-04-27 09:22 55.54007 71.47330 26560 ft 472 kts 118°
2026-04-27 09:22 55.52442 71.52398 26029 ft 467 kts 118°
2026-04-27 09:22 55.50904 71.57410 25505 ft 463 kts 118°
2026-04-27 09:23 55.49379 71.62396 24983 ft 459 kts 118°
2026-04-27 09:23 55.47873 71.67328 24467 ft 455 kts 118°
2026-04-27 09:23 55.46378 71.72218 23926 ft 451 kts 118°
2026-04-27 09:23 55.44897 71.77057 23354 ft 447 kts 118°
2026-04-27 09:24 55.43424 71.81854 22797 ft 442 kts 118°
2026-04-27 09:24 55.41967 71.86588 22276 ft 437 kts 118°
2026-04-27 09:24 55.40543 71.91204 21755 ft 432 kts 118°
2026-04-27 09:24 55.39118 71.95816 21236 ft 428 kts 119°
2026-04-27 09:25 55.37700 72.00394 20744 ft 423 kts 119°
2026-04-27 09:25 55.36298 72.04916 20229 ft 420 kts 120°
2026-04-27 09:25 55.34905 72.09396 19707 ft 416 kts 120°
2026-04-27 09:25 55.33522 72.13836 19205 ft 413 kts 120°
2026-04-27 09:26 55.32145 72.18249 18701 ft 410 kts 120°
2026-04-27 09:26 55.30781 72.22613 18160 ft 407 kts 120°
2026-04-27 09:26 55.29424 72.26944 17598 ft 404 kts 120°
2026-04-27 09:26 55.28075 72.31243 17071 ft 400 kts 120°
2026-04-27 09:27 55.26741 72.35487 16566 ft 395 kts 120°
2026-04-27 09:27 55.25847 72.38327 16224 ft 393 kts 120°
2026-04-27 09:27 55.24533 72.42496 15725 ft 389 kts 120°
2026-04-27 09:27 55.23245 72.46574 15236 ft 385 kts 120°
2026-04-27 09:28 55.21936 72.50713 14741 ft 382 kts 120°
2026-04-27 09:28 55.20669 72.54713 14260 ft 379 kts 120°
2026-04-27 09:28 55.19380 72.58778 13726 ft 376 kts 120°
2026-04-27 09:28 55.18133 72.62703 13192 ft 372 kts 120°
2026-04-27 09:29 55.16865 72.66686 12677 ft 368 kts 120°
2026-04-27 09:29 55.15667 72.70552 12192 ft 364 kts 117°
2026-04-27 09:29 55.14605 72.74550 11680 ft 362 kts 114°
2026-04-27 09:29 55.13614 72.78575 11181 ft 359 kts 113°
2026-04-27 09:30 55.12646 72.82574 10693 ft 355 kts 113°
2026-04-27 09:30 55.11695 72.86478 10544 ft 342 kts 113°
2026-04-27 09:30 55.10775 72.90219 10382 ft 330 kts 114°
2026-04-27 09:30 55.09879 72.93824 10234 ft 318 kts 114°
2026-04-27 09:31 55.09015 72.97286 10193 ft 303 kts 114°
2026-04-27 09:31 55.08172 73.00648 9634 ft 308 kts 114°
2026-04-27 09:31 55.07328 73.04028 9388 ft 300 kts 114°
2026-04-27 09:31 55.06487 73.07368 8921 ft 302 kts 114°
2026-04-27 09:32 55.05637 73.10691 8546 ft 297 kts 115°
2026-04-27 09:32 55.04815 73.13952 8172 ft 290 kts 114°
2026-04-27 09:32 55.04007 73.17149 7809 ft 284 kts 115°
2026-04-27 09:32 55.03216 73.20263 7515 ft 279 kts 115°
2026-04-27 09:33 55.02425 73.23360 7171 ft 281 kts 115°
2026-04-27 09:33 55.01640 73.26463 6857 ft 279 kts 115°
2026-04-27 09:33 55.00854 73.29543 6573 ft 277 kts 115°
2026-04-27 09:33 55.00063 73.32606 6203 ft 277 kts 115°
2026-04-27 09:34 54.99279 73.35672 5873 ft 276 kts 115°
2026-04-27 09:34 54.98790 73.38882 5537 ft 277 kts 89°
2026-04-27 09:34 54.99297 73.42051 5220 ft 272 kts 54°
2026-04-27 09:34 55.00594 73.44378 4842 ft 269 kts 35°
2026-04-27 09:35 55.02052 73.46351 4618 ft 264 kts 35°
2026-04-27 09:35 55.03500 73.48330 4285 ft 264 kts 36°
2026-04-27 09:35 55.04922 73.50309 4095 ft 257 kts 37°
2026-04-27 09:35 55.06009 73.52672 4023 ft 247 kts 69°
2026-04-27 09:36 55.06121 73.55531 3915 ft 233 kts 106°
2026-04-27 09:36 55.05394 73.57907 3813 ft 216 kts 136°
2026-04-27 09:36 55.04227 73.59374 3703 ft 201 kts 161°
2026-04-27 09:36 55.02899 73.59856 3547 ft 193 kts 187°
2026-04-27 09:37 55.01631 73.59304 3372 ft 185 kts 213°
2026-04-27 09:37 55.00646 73.57971 3255 ft 177 kts 234°
2026-04-27 09:37 55.00077 73.56092 3047 ft 176 kts 257°
2026-04-27 09:37 54.99800 73.54029 2837 ft 174 kts 258°
2026-04-27 09:38 54.99526 73.51983 2591 ft 172 kts 257°
2026-04-27 09:38 54.99254 73.49975 2346 ft 168 kts 257°
2026-04-27 09:38 54.98994 73.48041 2130 ft 158 kts 257°
2026-04-27 09:38 54.98750 73.46246 1880 ft 146 kts 257°
2026-04-27 09:39 54.98536 73.44642 1724 ft 128 kts 257°
2026-04-27 09:39 54.98337 73.43170 1529 ft 126 kts 257°
2026-04-27 09:39 54.98137 73.41690 1363 ft 125 kts 257°
2026-04-27 09:39 54.97935 73.40174 1188 ft 129 kts 257°
2026-04-27 09:40 54.97734 73.38672 1000 ft 129 kts 257°
2026-04-27 09:40 54.97529 73.37141 811 ft 131 kts 257°
2026-04-27 09:40 54.97320 73.35578 644 ft 131 kts 256°
2026-04-27 09:40 54.97114 73.34035 461 ft 130 kts 257°
2026-04-27 09:41 54.96909 73.32503 311 ft 129 kts 256°
2026-04-27 09:41 54.96740 73.31221 307 ft 80 kts 257°
2026-04-27 09:41 54.96661 73.30634 311 ft 23 kts 257°
2026-04-27 09:41 54.96625 73.30364 314 ft 23 kts 257°
2026-04-27 09:42 54.96590 73.30102 313 ft 22 kts 257°
2026-04-27 09:42 54.96556 73.29848 315 ft 21 kts 257°
2026-04-27 09:42 54.96523 73.29602 319 ft 21 kts 257°
2026-04-27 09:42 54.96494 73.29378 320 ft 16 kts 257°
2026-04-27 09:43 54.96475 73.29234 318 ft 10 kts 257°
2026-04-27 09:43 54.96441 73.29150 320 ft 9 kts 193°
2026-04-27 09:43 54.96383 73.29166 320 ft 8 kts 166°
2026-04-27 09:43 54.96328 73.29189 320 ft 8 kts 166°
2026-04-27 09:44 54.96272 73.29212 320 ft 8 kts 167°
2026-04-27 09:44 54.96217 73.29235 319 ft 8 kts 167°
2026-04-27 09:44 54.96164 73.29256 320 ft 8 kts 167°
2026-04-27 09:44 54.96113 73.29276 320 ft 7 kts 167°
2026-04-27 09:45 54.96079 73.29331 320 ft 7 kts 103°
2026-04-27 09:45 54.96087 73.29415 319 ft 7 kts 76°
2026-04-27 09:45 54.96098 73.29496 319 ft 7 kts 76°
2026-04-27 09:45 54.96108 73.29577 319 ft 7 kts 78°
2026-04-27 09:46 54.96120 73.29666 318 ft 9 kts 77°
2026-04-27 09:46 54.96136 73.29786 317 ft 11 kts 77°
2026-04-27 09:46 54.96153 73.29910 318 ft 10 kts 76°
2026-04-27 09:46 54.96169 73.30031 317 ft 10 kts 77°
2026-04-27 09:47 54.96183 73.30133 317 ft 7 kts 77°
2026-04-27 09:47 54.96165 73.30203 316 ft 7 kts 147°
2026-04-27 09:47 54.96125 73.30247 316 ft 7 kts 144°
2026-04-27 09:47 54.96089 73.30297 316 ft 7 kts 141°
2026-04-27 09:48 54.96047 73.30356 315 ft 9 kts 141°
2026-04-27 09:48 54.95995 73.30429 314 ft 10 kts 141°
2026-04-27 09:48 54.95941 73.30505 315 ft 10 kts 141°
2026-04-27 09:48 54.95887 73.30580 315 ft 10 kts 141°
2026-04-27 09:49 54.95835 73.30652 315 ft 9 kts 141°
2026-04-27 09:49 54.95785 73.30723 315 ft 9 kts 141°
2026-04-27 09:49 54.95736 73.30792 314 ft 9 kts 141°
2026-04-27 09:49 54.95694 73.30868 314 ft 9 kts 111°
2026-04-27 09:50 54.95714 73.30958 313 ft 8 kts 45°
2026-04-27 09:50 54.95755 73.31030 313 ft 8 kts 45°
2026-04-27 09:50 54.95794 73.31100 312 ft 8 kts 46°
2026-04-27 09:50 54.95831 73.31168 312 ft 7 kts 46°
2026-04-27 09:51 54.95864 73.31229 312 ft 7 kts 45°
2026-04-27 09:51 54.95896 73.31285 311 ft 6 kts 45°
2026-04-27 09:51 54.95927 73.31340 311 ft 6 kts 46°
2026-04-27 09:51 54.95955 73.31393 310 ft 6 kts 46°
2026-04-27 09:52 54.95979 73.31436 310 ft 5 kts 46°
2026-04-27 09:52 54.96001 73.31475 310 ft 3 kts 45°
2026-04-27 09:52 54.96011 73.31498 310 ft 2 kts 76°
2026-04-27 09:52 54.96004 73.31504 309 ft 1 kts 155°
2026-04-27 09:53 54.95997 73.31507 310 ft 1 kts 167°
2026-04-27 09:53 54.95996 73.31507 310 ft 0 kts 167°